Year,Month,Day,Hour,Minute,Value (Times are PST for temperature in C)
2017,01,18,00,00,10.20
2017,01,18,00,01,10.20
2017,01,18,00,02,10.20
2017,01,18,00,03,10.20
2017,01,18,00,04,10.10
2017,01,18,00,05,10.10
2017,01,18,00,06,10.10
2017,01,18,00,07,10.10
2017,01,18,00,08,10.10
2017,01,18,00,09,10.10
2017,01,18,00,10,10.10
2017,01,18,00,11,10.00
2017,01,18,00,12,10.00
2017,01,18,00,13,10.00
2017,01,18,00,14,10.00
2017,01,18,00,15,10.00
2017,01,18,00,16,9.90
2017,01,18,00,17,9.90
2017,01,18,00,18,9.90
2017,01,18,00,19,9.90
2017,01,18,00,20,9.90
2017,01,18,00,21,9.90
2017,01,18,00,22,9.90
2017,01,18,00,23,9.90
2017,01,18,00,24,9.90
2017,01,18,00,25,9.90
2017,01,18,00,26,9.90
2017,01,18,00,27,9.90
2017,01,18,00,28,9.90
2017,01,18,00,29,9.80
2017,01,18,00,30,9.80
2017,01,18,00,31,9.90
2017,01,18,00,32,9.90
2017,01,18,00,33,9.80
2017,01,18,00,34,9.80
2017,01,18,00,35,9.80
2017,01,18,00,36,9.80
2017,01,18,00,37,9.80
2017,01,18,00,38,9.80
2017,01,18,00,39,9.70
2017,01,18,00,40,9.70
2017,01,18,00,41,9.70
2017,01,18,00,42,9.70
2017,01,18,00,43,9.70
2017,01,18,00,44,9.70
2017,01,18,00,45,9.70
2017,01,18,00,46,9.70
2017,01,18,00,47,9.60
2017,01,18,00,48,9.60
2017,01,18,00,49,9.60
2017,01,18,00,50,9.60
2017,01,18,00,51,9.60
2017,01,18,00,52,9.60
2017,01,18,00,53,9.60
2017,01,18,00,54,9.60
2017,01,18,00,55,9.60
2017,01,18,00,56,9.60
2017,01,18,00,57,9.60
2017,01,18,00,58,9.70
2017,01,18,00,59,9.70
2017,01,18,01,00,9.70
2017,01,18,01,01,9.60
2017,01,18,01,02,9.60
2017,01,18,01,03,9.60
2017,01,18,01,04,9.60
2017,01,18,01,05,9.60
2017,01,18,01,06,9.70
2017,01,18,01,07,9.70
2017,01,18,01,08,9.70
2017,01,18,01,09,9.70
2017,01,18,01,10,9.60
2017,01,18,01,11,9.60
2017,01,18,01,12,9.60
2017,01,18,01,13,9.70
2017,01,18,01,14,9.70
2017,01,18,01,15,9.70
2017,01,18,01,16,9.70
2017,01,18,01,17,9.60
2017,01,18,01,18,9.60
2017,01,18,01,19,9.60
2017,01,18,01,20,9.60
2017,01,18,01,21,9.60
2017,01,18,01,22,9.60
2017,01,18,01,23,9.60
2017,01,18,01,24,9.70
2017,01,18,01,25,9.70
2017,01,18,01,26,9.70
2017,01,18,01,27,9.70
2017,01,18,01,28,9.70
2017,01,18,01,29,9.70
2017,01,18,01,30,9.70
2017,01,18,01,31,9.70
2017,01,18,01,32,9.70
2017,01,18,01,33,9.70
2017,01,18,01,34,9.70
2017,01,18,01,35,9.70
2017,01,18,01,36,9.70
2017,01,18,01,37,9.70
2017,01,18,01,38,9.70
2017,01,18,01,39,9.70
2017,01,18,01,40,9.70
2017,01,18,01,41,9.60
2017,01,18,01,42,9.60
2017,01,18,01,43,9.60
2017,01,18,01,44,9.70
2017,01,18,01,45,9.70
2017,01,18,01,46,9.70
2017,01,18,01,47,9.70
2017,01,18,01,48,9.70
2017,01,18,01,49,9.70
2017,01,18,01,50,9.80
2017,01,18,01,51,9.80
2017,01,18,01,52,9.80
2017,01,18,01,53,9.80
2017,01,18,01,54,9.80
2017,01,18,01,55,9.80
2017,01,18,01,56,9.80
2017,01,18,01,57,9.80
2017,01,18,01,58,9.80
2017,01,18,01,59,9.80
2017,01,18,02,00,9.80
2017,01,18,02,01,9.80
2017,01,18,02,02,9.80
2017,01,18,02,03,9.90
2017,01,18,02,04,9.90
2017,01,18,02,05,9.90
2017,01,18,02,06,9.90
2017,01,18,02,07,9.90
2017,01,18,02,08,9.90
2017,01,18,02,09,9.90
2017,01,18,02,10,9.90
2017,01,18,02,11,9.90
2017,01,18,02,12,9.90
2017,01,18,02,13,9.90
2017,01,18,02,14,9.90
2017,01,18,02,15,9.90
2017,01,18,02,16,9.90
2017,01,18,02,17,9.90
2017,01,18,02,18,9.90
2017,01,18,02,19,9.90
2017,01,18,02,20,9.90
2017,01,18,02,21,9.90
2017,01,18,02,22,9.90
2017,01,18,02,23,9.90
2017,01,18,02,24,9.90
2017,01,18,02,25,9.90
2017,01,18,02,26,9.90
2017,01,18,02,27,9.90
2017,01,18,02,28,9.90
2017,01,18,02,29,9.90
2017,01,18,02,30,9.90
2017,01,18,02,31,9.80
2017,01,18,02,32,9.80
2017,01,18,02,33,9.80
2017,01,18,02,34,9.80
2017,01,18,02,35,9.80
2017,01,18,02,36,9.80
2017,01,18,02,37,9.80
2017,01,18,02,38,9.80
2017,01,18,02,39,9.80
2017,01,18,02,40,9.80
2017,01,18,02,41,9.80
2017,01,18,02,42,9.80
2017,01,18,02,43,9.70
2017,01,18,02,44,9.70
2017,01,18,02,45,9.70
2017,01,18,02,46,9.70
2017,01,18,02,47,9.70
2017,01,18,02,48,9.80
2017,01,18,02,49,9.80
2017,01,18,02,50,9.80
2017,01,18,02,51,9.80
2017,01,18,02,52,9.80
2017,01,18,02,53,9.80
2017,01,18,02,54,9.80
2017,01,18,02,55,9.80
2017,01,18,02,56,9.80
2017,01,18,02,57,9.80
2017,01,18,02,58,9.80
2017,01,18,02,59,9.80
2017,01,18,03,00,9.80
2017,01,18,03,01,9.80
2017,01,18,03,02,9.80
2017,01,18,03,03,9.80
2017,01,18,03,04,9.80
2017,01,18,03,05,9.80
2017,01,18,03,06,9.80
2017,01,18,03,07,9.80
2017,01,18,03,08,9.80
2017,01,18,03,09,9.70
2017,01,18,03,10,9.70
2017,01,18,03,11,9.70
2017,01,18,03,12,9.70
2017,01,18,03,13,9.70
2017,01,18,03,14,9.70
2017,01,18,03,15,9.70
2017,01,18,03,16,9.70
2017,01,18,03,17,9.70
2017,01,18,03,18,9.70
2017,01,18,03,19,9.60
2017,01,18,03,20,9.60
2017,01,18,03,21,9.60
2017,01,18,03,22,9.60
2017,01,18,03,23,9.60
2017,01,18,03,24,9.60
2017,01,18,03,25,9.60
2017,01,18,03,26,9.50
2017,01,18,03,27,9.50
2017,01,18,03,28,9.40
2017,01,18,03,29,9.40
2017,01,18,03,30,9.40
2017,01,18,03,31,9.30
2017,01,18,03,32,9.30
2017,01,18,03,33,9.30
2017,01,18,03,34,9.30
2017,01,18,03,35,9.20
2017,01,18,03,36,9.20
2017,01,18,03,37,9.20
2017,01,18,03,38,9.20
2017,01,18,03,39,9.10
2017,01,18,03,40,9.10
2017,01,18,03,41,9.10
2017,01,18,03,42,9.10
2017,01,18,03,43,9.10
2017,01,18,03,44,9.10
2017,01,18,03,45,9.00
2017,01,18,03,46,9.00
2017,01,18,03,47,9.00
2017,01,18,03,48,9.00
2017,01,18,03,49,9.00
2017,01,18,03,50,9.00
2017,01,18,03,51,8.90
2017,01,18,03,52,8.90
2017,01,18,03,53,8.90
2017,01,18,03,54,8.90
2017,01,18,03,55,8.90
2017,01,18,03,56,8.90
2017,01,18,03,57,8.90
2017,01,18,03,58,8.90
2017,01,18,03,59,8.90
2017,01,18,04,00,8.90
2017,01,18,04,01,8.90
2017,01,18,04,02,8.90
2017,01,18,04,03,8.90
2017,01,18,04,04,8.90
2017,01,18,04,05,8.90
2017,01,18,04,06,8.90
2017,01,18,04,07,8.90
2017,01,18,04,08,8.90
2017,01,18,04,09,8.90
2017,01,18,04,10,8.90
2017,01,18,04,11,8.90
2017,01,18,04,12,8.90
2017,01,18,04,13,8.90
2017,01,18,04,14,9.00
2017,01,18,04,15,8.90
2017,01,18,04,16,8.90
2017,01,18,04,17,8.90
2017,01,18,04,18,8.90
2017,01,18,04,19,8.90
2017,01,18,04,20,8.90
2017,01,18,04,21,8.90
2017,01,18,04,22,8.90
2017,01,18,04,23,8.90
2017,01,18,04,24,8.90
2017,01,18,04,25,8.90
2017,01,18,04,26,8.90
2017,01,18,04,27,8.90
2017,01,18,04,28,8.90
2017,01,18,04,29,8.90
2017,01,18,04,30,8.90
2017,01,18,04,31,8.90
2017,01,18,04,32,8.90
2017,01,18,04,33,8.90
2017,01,18,04,34,8.90
2017,01,18,04,35,8.90
2017,01,18,04,36,8.90
2017,01,18,04,37,8.90
2017,01,18,04,38,8.90
2017,01,18,04,39,8.90
2017,01,18,04,40,8.80
2017,01,18,04,41,8.80
2017,01,18,04,42,8.80
2017,01,18,04,43,8.80
2017,01,18,04,44,8.80
2017,01,18,04,45,8.80
2017,01,18,04,46,8.80
2017,01,18,04,47,8.80
2017,01,18,04,48,8.80
2017,01,18,04,49,8.80
2017,01,18,04,50,8.80
2017,01,18,04,51,8.80
2017,01,18,04,52,8.80
2017,01,18,04,53,8.90
2017,01,18,04,54,8.90
2017,01,18,04,55,8.90
2017,01,18,04,56,8.90
2017,01,18,04,57,8.90
2017,01,18,04,58,8.90
2017,01,18,04,59,8.90
2017,01,18,05,00,8.90
2017,01,18,05,01,8.90
2017,01,18,05,02,9.00
2017,01,18,05,03,9.00
2017,01,18,05,04,9.00
2017,01,18,05,05,9.00
2017,01,18,05,06,9.00
2017,01,18,05,07,9.00
2017,01,18,05,08,9.00
2017,01,18,05,09,9.00
2017,01,18,05,10,9.00
2017,01,18,05,11,8.90
2017,01,18,05,12,8.90
2017,01,18,05,13,8.90
2017,01,18,05,14,8.80
2017,01,18,05,15,8.80
2017,01,18,05,16,8.80
2017,01,18,05,17,8.80
2017,01,18,05,18,8.70
2017,01,18,05,19,8.70
2017,01,18,05,20,8.70
2017,01,18,05,21,8.60
2017,01,18,05,22,8.60
2017,01,18,05,23,8.60
2017,01,18,05,24,8.50
2017,01,18,05,25,8.50
2017,01,18,05,26,8.50
2017,01,18,05,27,8.40
2017,01,18,05,28,8.40
2017,01,18,05,29,8.40
2017,01,18,05,30,8.40
2017,01,18,05,31,8.40
2017,01,18,05,32,8.30
2017,01,18,05,33,8.30
2017,01,18,05,34,8.30
2017,01,18,05,35,8.30
2017,01,18,05,36,8.30
2017,01,18,05,37,8.30
2017,01,18,05,38,8.30
2017,01,18,05,39,8.30
2017,01,18,05,40,8.30
2017,01,18,05,41,8.30
2017,01,18,05,42,8.30
2017,01,18,05,43,8.30
2017,01,18,05,44,8.20
2017,01,18,05,45,8.20
2017,01,18,05,46,8.20
2017,01,18,05,47,8.20
2017,01,18,05,48,8.20
2017,01,18,05,49,8.20
2017,01,18,05,50,8.20
2017,01,18,05,51,8.20
2017,01,18,05,52,8.20
2017,01,18,05,53,8.20
2017,01,18,05,54,8.10
2017,01,18,05,55,8.10
2017,01,18,05,56,8.10
2017,01,18,05,57,8.10
2017,01,18,05,58,8.10
2017,01,18,05,59,8.10
2017,01,18,06,00,8.10
2017,01,18,06,01,8.10
2017,01,18,06,02,8.10
2017,01,18,06,03,8.10
2017,01,18,06,04,8.10
2017,01,18,06,05,8.10
2017,01,18,06,06,8.10
2017,01,18,06,07,8.10
2017,01,18,06,08,8.10
2017,01,18,06,09,8.00
2017,01,18,06,10,8.00
2017,01,18,06,11,8.00
2017,01,18,06,12,8.00
2017,01,18,06,13,8.00
2017,01,18,06,14,8.00
2017,01,18,06,15,8.00
2017,01,18,06,16,7.90
2017,01,18,06,17,7.90
2017,01,18,06,18,7.90
2017,01,18,06,19,7.90
2017,01,18,06,20,7.90
2017,01,18,06,21,7.90
2017,01,18,06,22,7.90
2017,01,18,06,23,7.90
2017,01,18,06,24,7.80
2017,01,18,06,25,7.80
2017,01,18,06,26,7.80
2017,01,18,06,27,7.80
2017,01,18,06,28,7.80
2017,01,18,06,29,7.80
2017,01,18,06,30,7.80
2017,01,18,06,31,7.80
2017,01,18,06,32,7.80
2017,01,18,06,33,7.80
2017,01,18,06,34,7.70
2017,01,18,06,35,7.70
2017,01,18,06,36,7.70
2017,01,18,06,37,7.70
2017,01,18,06,38,7.70
2017,01,18,06,39,7.70
2017,01,18,06,40,7.70
2017,01,18,06,41,7.70
2017,01,18,06,42,7.70
2017,01,18,06,43,7.70
2017,01,18,06,44,7.70
2017,01,18,06,45,7.70
2017,01,18,06,46,7.70
2017,01,18,06,47,7.70
2017,01,18,06,48,7.70
2017,01,18,06,49,7.70
2017,01,18,06,50,7.60
2017,01,18,06,51,7.60
2017,01,18,06,52,7.60
2017,01,18,06,53,7.60
2017,01,18,06,54,7.60
2017,01,18,06,55,7.60
2017,01,18,06,56,7.60
2017,01,18,06,57,7.60
2017,01,18,06,58,7.60
2017,01,18,06,59,7.60
2017,01,18,07,00,7.60
2017,01,18,07,01,7.50
2017,01,18,07,02,7.50
2017,01,18,07,03,7.40
2017,01,18,07,04,7.40
2017,01,18,07,05,7.40
2017,01,18,07,06,7.40
2017,01,18,07,07,7.30
2017,01,18,07,08,7.30
2017,01,18,07,09,7.30
2017,01,18,07,10,7.30
2017,01,18,07,11,7.30
2017,01,18,07,12,7.30
2017,01,18,07,13,7.30
2017,01,18,07,14,7.30
2017,01,18,07,15,7.30
2017,01,18,07,16,7.30
2017,01,18,07,17,7.30
2017,01,18,07,18,7.30
2017,01,18,07,19,7.40
2017,01,18,07,20,7.30
2017,01,18,07,21,7.30
2017,01,18,07,22,7.30
2017,01,18,07,23,7.30
2017,01,18,07,24,7.30
2017,01,18,07,25,7.20
2017,01,18,07,26,7.20
2017,01,18,07,27,7.20
2017,01,18,07,28,7.20
2017,01,18,07,29,7.20
2017,01,18,07,30,7.20
2017,01,18,07,31,7.20
2017,01,18,07,32,7.20
2017,01,18,07,33,7.20
2017,01,18,07,34,7.10
2017,01,18,07,35,7.10
2017,01,18,07,36,7.10
2017,01,18,07,37,7.10
2017,01,18,07,38,7.10
2017,01,18,07,39,7.10
2017,01,18,07,40,7.10
2017,01,18,07,41,7.10
2017,01,18,07,42,7.10
2017,01,18,07,43,7.10
2017,01,18,07,44,7.10
2017,01,18,07,45,7.10
2017,01,18,07,46,7.10
2017,01,18,07,47,7.10
2017,01,18,07,48,7.10
2017,01,18,07,49,7.20
2017,01,18,07,50,7.20
2017,01,18,07,51,7.20
2017,01,18,07,52,7.20
2017,01,18,07,53,7.20
2017,01,18,07,54,7.20
2017,01,18,07,55,7.20
2017,01,18,07,56,7.20
2017,01,18,07,57,7.20
2017,01,18,07,58,7.20
2017,01,18,07,59,7.20
2017,01,18,08,00,7.30
2017,01,18,08,01,7.30
2017,01,18,08,02,7.30
2017,01,18,08,03,7.30
2017,01,18,08,04,7.30
2017,01,18,08,05,7.30
2017,01,18,08,06,7.30
2017,01,18,08,07,7.30
2017,01,18,08,08,7.30
2017,01,18,08,09,7.30
2017,01,18,08,10,7.30
2017,01,18,08,11,7.30
2017,01,18,08,12,7.40
2017,01,18,08,13,7.40
2017,01,18,08,14,7.40
2017,01,18,08,15,7.40
2017,01,18,08,16,7.40
2017,01,18,08,17,7.40
2017,01,18,08,18,7.40
2017,01,18,08,19,7.40
2017,01,18,08,20,7.30
2017,01,18,08,21,7.30
2017,01,18,08,22,7.30
2017,01,18,08,23,7.30
2017,01,18,08,24,7.30
2017,01,18,08,25,7.20
2017,01,18,08,26,7.20
2017,01,18,08,27,7.20
2017,01,18,08,28,7.20
2017,01,18,08,29,7.20
2017,01,18,08,30,7.20
2017,01,18,08,31,7.20
2017,01,18,08,32,7.20
2017,01,18,08,33,7.20
2017,01,18,08,34,7.20
2017,01,18,08,35,7.20
2017,01,18,08,36,7.20
2017,01,18,08,37,7.30
2017,01,18,08,38,7.30
2017,01,18,08,39,7.30
2017,01,18,08,40,7.40
2017,01,18,08,41,7.40
2017,01,18,08,42,7.40
2017,01,18,08,43,7.40
2017,01,18,08,44,7.30
2017,01,18,08,45,7.40
2017,01,18,08,46,7.40
2017,01,18,08,47,7.30
2017,01,18,08,48,7.40
2017,01,18,08,49,7.40
2017,01,18,08,50,7.40
2017,01,18,08,51,7.40
2017,01,18,08,52,7.40
2017,01,18,08,53,7.40
2017,01,18,08,54,7.40
2017,01,18,08,55,7.40
2017,01,18,08,56,7.40
2017,01,18,08,57,7.30
2017,01,18,08,58,7.30
2017,01,18,08,59,7.30
2017,01,18,09,00,7.40
2017,01,18,09,01,7.40
2017,01,18,09,02,7.40
2017,01,18,09,03,7.40
2017,01,18,09,04,7.40
2017,01,18,09,05,7.40
2017,01,18,09,06,7.40
2017,01,18,09,07,7.40
2017,01,18,09,08,7.30
2017,01,18,09,09,7.30
2017,01,18,09,10,7.30
2017,01,18,09,11,7.20
2017,01,18,09,12,7.20
2017,01,18,09,13,7.20
2017,01,18,09,14,7.20
2017,01,18,09,15,7.20
2017,01,18,09,16,7.20
2017,01,18,09,17,7.20
2017,01,18,09,18,7.20
2017,01,18,09,19,7.20
2017,01,18,09,20,7.20
2017,01,18,09,21,7.20
2017,01,18,09,22,7.20
2017,01,18,09,23,7.20
2017,01,18,09,24,7.20
2017,01,18,09,25,7.20
2017,01,18,09,26,7.20
2017,01,18,09,27,7.20
2017,01,18,09,28,7.20
2017,01,18,09,29,7.20
2017,01,18,09,30,7.20
2017,01,18,09,31,7.20
2017,01,18,09,32,7.20
2017,01,18,09,33,7.20
2017,01,18,09,34,7.20
2017,01,18,09,35,7.20
2017,01,18,09,36,7.20
2017,01,18,09,37,7.20
2017,01,18,09,38,7.20
2017,01,18,09,39,7.20
2017,01,18,09,40,7.20
2017,01,18,09,41,7.20
2017,01,18,09,42,7.20
2017,01,18,09,43,7.10
2017,01,18,09,44,7.10
2017,01,18,09,45,7.10
2017,01,18,09,46,7.10
2017,01,18,09,47,7.00
2017,01,18,09,48,7.00
2017,01,18,09,49,7.00
2017,01,18,09,50,6.90
2017,01,18,09,51,6.90
2017,01,18,09,52,7.00
2017,01,18,09,53,7.00
2017,01,18,09,54,7.00
2017,01,18,09,55,7.10
2017,01,18,09,56,7.00
2017,01,18,09,57,7.00
2017,01,18,09,58,7.00
2017,01,18,09,59,7.00
2017,01,18,10,00,7.00
2017,01,18,10,01,7.00
2017,01,18,10,02,7.00
2017,01,18,10,03,7.00
2017,01,18,10,04,6.90
2017,01,18,10,05,7.00
2017,01,18,10,06,7.00
2017,01,18,10,07,7.00
2017,01,18,10,08,7.00
2017,01,18,10,09,7.00
2017,01,18,10,10,7.00
2017,01,18,10,11,7.10
2017,01,18,10,12,7.10
2017,01,18,10,13,7.10
2017,01,18,10,14,7.20
2017,01,18,10,15,7.20
2017,01,18,10,16,7.20
2017,01,18,10,17,7.20
2017,01,18,10,18,7.30
2017,01,18,10,19,7.30
2017,01,18,10,20,7.30
2017,01,18,10,21,7.30
2017,01,18,10,22,7.40
2017,01,18,10,23,7.40
2017,01,18,10,24,7.40
2017,01,18,10,25,7.40
2017,01,18,10,26,7.50
2017,01,18,10,27,7.50
2017,01,18,10,28,7.50
2017,01,18,10,29,7.60
2017,01,18,10,30,7.60
2017,01,18,10,31,7.60
2017,01,18,10,32,7.60
2017,01,18,10,33,7.60
2017,01,18,10,34,7.60
2017,01,18,10,35,7.60
2017,01,18,10,36,7.70
2017,01,18,10,37,7.70
2017,01,18,10,38,7.70
2017,01,18,10,39,7.70
2017,01,18,10,40,7.80
2017,01,18,10,41,7.80
2017,01,18,10,42,7.80
2017,01,18,10,43,7.80
2017,01,18,10,44,7.80
2017,01,18,10,45,7.80
2017,01,18,10,46,7.90
2017,01,18,10,47,7.90
2017,01,18,10,48,7.90
2017,01,18,10,49,7.90
2017,01,18,10,50,7.90
2017,01,18,10,51,7.90
2017,01,18,10,52,7.90
2017,01,18,10,53,8.00
2017,01,18,10,54,8.00
2017,01,18,10,55,8.00
2017,01,18,10,56,8.00
2017,01,18,10,57,8.00
2017,01,18,10,58,8.10
2017,01,18,10,59,8.10
2017,01,18,11,00,8.10
2017,01,18,11,01,8.10
2017,01,18,11,02,8.10
2017,01,18,11,03,8.20
2017,01,18,11,04,8.10
2017,01,18,11,05,8.20
2017,01,18,11,06,8.20
2017,01,18,11,07,8.20
2017,01,18,11,08,8.20
2017,01,18,11,09,8.20
2017,01,18,11,10,8.20
2017,01,18,11,11,8.20
2017,01,18,11,12,8.30
2017,01,18,11,13,8.30
2017,01,18,11,14,8.30
2017,01,18,11,15,8.30
2017,01,18,11,16,8.30
2017,01,18,11,17,8.30
2017,01,18,11,18,8.30
2017,01,18,11,19,8.40
2017,01,18,11,20,8.40
2017,01,18,11,21,8.40
2017,01,18,11,22,8.40
2017,01,18,11,23,8.40
2017,01,18,11,24,8.40
2017,01,18,11,25,8.40
2017,01,18,11,26,8.40
2017,01,18,11,27,8.40
2017,01,18,11,28,8.40
2017,01,18,11,29,8.40
2017,01,18,11,30,8.50
2017,01,18,11,31,8.50
2017,01,18,11,32,8.50
2017,01,18,11,33,8.50
2017,01,18,11,34,8.50
2017,01,18,11,35,8.40
2017,01,18,11,36,8.40
2017,01,18,11,37,8.40
2017,01,18,11,38,8.40
2017,01,18,11,39,8.40
2017,01,18,11,40,8.40
2017,01,18,11,41,8.40
2017,01,18,11,42,8.40
2017,01,18,11,43,8.40
2017,01,18,11,44,8.40
2017,01,18,11,45,8.40
2017,01,18,11,46,8.40
2017,01,18,11,47,8.50
2017,01,18,11,48,8.60
2017,01,18,11,49,8.70
2017,01,18,11,50,8.80
2017,01,18,11,51,8.80
2017,01,18,11,52,8.90
2017,01,18,11,53,9.00
2017,01,18,11,54,9.00
2017,01,18,11,55,9.10
2017,01,18,11,56,9.10
2017,01,18,11,57,9.20
2017,01,18,11,58,9.20
2017,01,18,11,59,9.30
2017,01,18,12,00,9.30
2017,01,18,12,01,9.40
2017,01,18,12,02,9.60
2017,01,18,12,03,9.60
2017,01,18,12,04,9.60
2017,01,18,12,05,9.60
2017,01,18,12,06,9.60
2017,01,18,12,07,9.50
2017,01,18,12,08,9.60
2017,01,18,12,09,9.60
2017,01,18,12,10,9.60
2017,01,18,12,11,9.60
2017,01,18,12,12,9.60
2017,01,18,12,13,9.60
2017,01,18,12,14,9.60
2017,01,18,12,15,9.60
2017,01,18,12,16,9.60
2017,01,18,12,17,9.60
2017,01,18,12,18,9.70
2017,01,18,12,19,9.70
2017,01,18,12,20,9.70
2017,01,18,12,21,9.70
2017,01,18,12,22,9.70
2017,01,18,12,23,9.70
2017,01,18,12,24,9.70
2017,01,18,12,25,9.70
2017,01,18,12,26,9.70
2017,01,18,12,27,9.70
